STARLINK-1726 (46362 NORAD) Tracking and Keplerian Element Data

This shows tracking and keplerian element data for the satellite.

Feedback or suggestion? Click here.




ElementValue
Catalog46362
NameSTARLINK-1726
Epoch Orbit181
Epoch Day330.91667824
Epoch Year2020
RAAN20.1504
Inclination52.9986
Eccentricity0.0002607
Argument of Perigee13.0067
Mean Anonmoly9.7295
Mean Motion15.6276288
Decay Rate0.00053951
L11 46362U 20062AP 20330.91667824 .00053951 00000-0 59084-3 0 9994
L22 46362 52.9986 20.1504 0002607 13.0067 9.7295 15.62762880 1813

Live tracking and technical data element details for STARLINK-1726 (NORAD 46362). STARLINK-1726 can be tracked NOW for your location showing map with azimuth and elevation plus other details from your city location.

Track the satellite on the map from your city or location and see movement details for azimuth, elevation, latitude, longitude, range, height, and movement on the map or in text.







IsCatalogInMostPopularTable: catalog: 46362, numindb: 23
Update: records affected: 1



GetName: 46362 STARLINK-1726

Hit Count: updated at: Fri, 27 Nov 2020 00:20:18 GMT